[[{"header":{"parameterUnit":"m.s-1","parameterCategory":1,"la1":30.2991,"la2":30.254,"lo1":-89.0895,"lo2":-89.0444,"dy":0.0017,"dx":0.0017,"nx":28,"ny":28,"refTime":"2024-08-12T09:00:00:Z","depth":0,"parameterNumber":2,"parameterNumberName":"U-component_of_WINDS"},"data":[0,0,0,0,0,0,0,0,0,0,0,0,0,0,0,0,0,0,0,0,0,0,0,0,0,0,0,0,0,0,0,0,0,0,0,0,0,0,0,0,0,0,0,0,0,0,0,0,0,0,0,0,0,0,0,0,0,0,2.1659,2.1661,0,2.1821,2.1823,2.1825,2.1864,2.1863,2.1861,2.186,2.2027,2.2032,2.2038,0,0,0,0,0,0,0,0,0,0,0,0,0,2.1383,2.1388,2.1659,2.1661,2.1663,2.1821,2.1823,2.1825,2.1864,2.1863,2.1861,2.186,2.2025,2.2032,2.2038,0,0,0,0,0,0,0,0,0,0,0,0,0,2.152,2.139,2.1658,2.1701,2.1707,2.182,2.1823,2.1826,2.1864,2.1862,2.1861,2.1859,2.2023,2.2031,2.2039,2.2122,0,0,2.2064,2.2068,0,0,0,0,0,0,0,0,2.1512,2.153,2.1693,2.1698,2.1705,2.182,2.1787,2.1925,2.1865,2.1804,2.186,2.1859,2.196,2.1973,2.2007,2.213,2.2137,2.2065,2.207,2.2073,2.2076,0,0,0,0,0,0,0,2.1503,2.1523,2.1723,2.1695,2.1702,2.1712,2.173,2.1813,2.1889,2.1809,2.1813,2.1831,2.1963,2.1999,2.2011,2.2139,2.2065,2.2072,2.2077,2.208,2.2338,2.2339,0,0,0,0,0,0,2.1486,2.1515,2.1718,2.1728,2.1602,2.1719,2.1738,2.1785,2.1888,2.1903,2.1832,2.1832,2.1986,2.2002,2.2017,2.212,2.2073,2.2081,2.2086,2.2336,2.2338,2.234,0,0,0,0,0,0,2.148,2.1503,2.1711,2.1622,2.165,2.1725,2.1777,2.1789,2.1825,2.1906,2.1919,2.1856,2.1985,2.2006,2.2095,2.2126,2.2085,2.2092,2.2333,2.2336,2.2339,2.2327,0,0,0,0,0,0,2.1472,2.1501,2.1533,2.1623,2.1654,2.1786,2.1779,2.1793,2.1839,2.1841,2.1931,2.1944,2.1986,2.2083,2.2103,2.2137,2.2098,2.2331,2.2335,2.2338,2.2325,2.2329,2.2332,0,0,0,0,0,2.1462,2.1523,2.1534,2.1559,2.1696,2.1788,2.1806,2.1852,2.1841,2.1874,2.1926,2.1942,2.212,2.2092,2.2115,2.2152,2.2329,2.2334,2.2338,2.2323,2.2328,2.2332,0,0,0,0,0,0,2.1435,2.1536,2.1549,2.1642,2.1706,2.1794,2.1837,2.1856,2.1924,2.1923,2.1977,2.1997,2.2083,2.2127,2.2094,2.2237,2.2224,2.2234,2.2205,2.2211,2.2214,2.2202,2.2105,0,0,0,0,0,2.144,2.1507,2.1591,2.1665,2.1696,2.1761,2.1803,2.1833,2.1902,2.1929,2.1987,2.2054,2.2125,2.217,2.224,2.2332,2.2352,2.2368,2.2372,2.2375,2.2382,2.2433,2.2441,2.2354,2.2354,2.2354,0,0,2.1451,2.1514,2.1553,2.1661,2.1714,2.1782,2.1784,2.1855,2.1906,2.194,2.2028,2.2073,2.2151,2.2241,2.2284,2.228,2.241,2.238,2.2382,2.2388,2.2438,2.2446,2.2453,2.2357,2.2357,2.2356,0,0,2.1505,2.156,2.1627,2.168,2.1761,2.1804,2.182,2.1906,2.1937,2.2026,2.2053,2.2114,2.2235,2.2289,2.2333,2.2407,2.2424,2.2429,2.2448,2.2498,2.2504,2.2511,2.2536,2.2545,2.2436,2.2436,2.2436,0,2.1508,2.1611,2.1659,2.1729,2.1776,2.181,2.1878,2.1927,2.2027,2.2058,2.2052,2.2205,2.226,2.2363,2.2381,2.2415,2.2435,2.2418,2.2499,2.2506,2.2513,2.2538,2.2548,2.2436,2.2436,2.2436,2.2436,0,2.1611,2.1682,2.1726,2.1821,2.1872,2.1941,2.1999,2.2046,2.2071,2.2115,2.2205,2.2272,2.2356,2.2383,2.2408,2.249,2.2485,2.2489,2.2477,2.252,2.2545,2.2555,2.2436,2.2436,2.2436,2.2436,0,0,2.1652,2.1772,2.1788,2.1831,2.1922,2.1978,2.2048,2.213,2.2168,2.2236,2.2296,2.2398,2.2402,2.2451,2.2484,2.2527,2.258,2.2525,2.2528,2.2532,2.2674,2.2669,2.268,2.2593,2.2595,2.2596,2.2667,0,2.1716,2.1843,2.1888,2.1992,2.2058,2.2091,2.2153,2.2215,2.2258,2.232,2.2367,2.2438,2.2439,2.2468,2.2513,2.2564,2.2609,2.256,2.2649,2.2651,2.2627,2.2693,2.2688,2.2751,2.2677,2.2678,2.268,0,2.1808,2.1876,2.1987,2.207,2.2099,2.2153,2.2231,2.2291,2.2363,2.2391,2.2445,2.2475,2.255,2.2534,2.2638,2.2603,2.2643,2.2673,2.2677,2.2686,2.2667,2.2702,2.2773,2.2782,2.2695,2.2694,2.2693,0,2.1825,2.1945,2.2027,2.2063,2.2162,2.2199,2.2242,2.2313,2.2359,2.2427,2.2458,2.2534,2.2576,2.2635,2.2684,2.2668,2.2783,2.2772,2.2808,2.2807,2.283,2.2827,2.2906,2.2857,2.2857,2.2856,2.2856,0,2.1892,2.1958,2.2036,2.2085,2.216,2.2212,2.2285,2.233,2.2393,2.2452,2.2486,2.2541,2.2603,2.2666,2.2706,2.2785,2.2804,2.2829,2.2838,2.2825,2.2822,2.285,2.2847,2.2859,2.2858,2.2858,2.2857,0,2.1923,2.1978,2.2069,2.2156,2.2179,2.223,2.2304,2.2354,2.2398,2.2473,2.2494,2.2563,2.2639,2.2694,2.2793,2.2819,2.2904,2.2914,2.2879,2.2884,2.2916,2.2912,2.3015,2.3031,2.2972,2.2972,2.2973,0,2.1961,2.2013,2.2105,2.2147,2.219,2.2257,2.2304,2.2358,2.2405,2.2491,2.2531,2.2609,2.2674,2.2794,2.2854,2.2929,2.294,2.2972,2.2952,2.2937,2.294,2.2935,2.2941,2.2974,2.2974,2.2975,2.2975,0,2.2023,2.2047,2.2114,2.219,2.2245,2.2308,2.2371,2.2403,2.2468,2.252,2.2598,2.2648,2.2749,2.2826,2.2907,2.2952,2.2974,2.2981,2.2993,2.2979,2.2957,2.2968,2.2886,2.2978,2.2977,2.2977,2.2977,2.2977,2.2058,2.2105,2.2177,2.225,2.2303,2.2361,2.2412,2.2463,2.2529,2.2614,2.2642,2.2722,2.2793,2.2904,2.295,2.3014,2.3013,2.3031,2.3035,2.3038,2.3037,2.2947,2.3029,2.3029,2.3029,2.3029,2.3029,0,2.212,2.2168,2.2235,2.2322,2.2379,2.2396,2.2466,2.2513,2.2583,2.2647,2.2711,2.28,2.2876,2.2941,2.3019,2.3057,2.307,2.3076,2.3073,2.3083,2.3034,2.3015,2.3065,2.3065,2.3065,2.3065,2.3065,2.3065,2.2159,2.224,2.2273,2.238,2.2428,2.2506,2.2545,2.2599,2.265,2.2749,2.2811,2.2853,2.2918,2.3001,2.3071,2.3088,2.3115,2.3118,2.3138,2.3091,2.3087,2.3082,2.3065,2.3124,2.3124,2.3182,2.3182,2.3182]},{"header":{"parameterUnit":"m.s-1","parameterCategory":1,"la1":30.2991,"la2":30.254,"lo1":-89.0895,"lo2":-89.0444,"dy":0.0017,"dx":0.0017,"nx":28,"ny":28,"refTime":"2024-08-12T09:00:00:Z","depth":0,"parameterNumber":3,"parameterNumberName":"V-component_of_WINDS"},"data":[0,0,0,0,0,0,0,0,0,0,0,0,0,0,0,0,0,0,0,0,0,0,0,0,0,0,0,0,0,0,0,0,0,0,0,0,0,0,0,0,0,0,0,0,0,0,0,0,0,0,0,0,0,0,0,0,0,0,3.7489,3.7489,0,3.7504,3.7504,3.7505,3.7468,3.7466,3.7465,3.7464,3.7477,3.7478,3.7479,0,0,0,0,0,0,0,0,0,0,0,0,0,3.7425,3.7427,3.7489,3.7489,3.749,3.7504,3.7504,3.7505,3.7468,3.7466,3.7465,3.7464,3.7476,3.7478,3.748,0,0,0,0,0,0,0,0,0,0,0,0,0,3.7448,3.7427,3.7489,3.7473,3.7472,3.7504,3.7504,3.7505,3.7468,3.7466,3.7465,3.7463,3.7476,3.7478,3.748,3.7528,0,0,3.7486,3.7487,0,0,0,0,0,0,0,0,3.7447,3.745,3.7475,3.7474,3.7473,3.7482,3.7486,3.7512,3.7469,3.7469,3.7464,3.7462,3.748,3.7481,3.7488,3.7528,3.7529,3.7487,3.7488,3.7489,3.7489,0,0,0,0,0,0,0,3.7445,3.7449,3.7495,3.7476,3.7474,3.7464,3.7465,3.7491,3.7484,3.7469,3.7467,3.7469,3.7479,3.7486,3.7488,3.7529,3.7486,3.7488,3.749,3.749,3.7608,3.761,0,0,0,0,0,0,3.7446,3.7448,3.7495,3.7495,3.7455,3.7467,3.7468,3.7481,3.7484,3.7482,3.747,3.7467,3.7483,3.7486,3.7488,3.7543,3.7489,3.7491,3.7492,3.7606,3.7608,3.761,0,0,0,0,0,0,3.7445,3.7451,3.7494,3.7471,3.7476,3.747,3.7484,3.7482,3.7489,3.7485,3.7483,3.7479,3.7482,3.7485,3.7518,3.7543,3.7492,3.7494,3.7604,3.7607,3.7609,3.7655,0,0,0,0,0,0,3.7443,3.745,3.7469,3.7472,3.7477,3.7525,3.7486,3.7484,3.7494,3.7489,3.7493,3.7491,3.7481,3.7515,3.752,3.7545,3.7495,3.7602,3.7605,3.7608,3.7651,3.7659,3.7665,0,0,0,0,0,3.7441,3.7481,3.747,3.7476,3.7501,3.7526,3.7529,3.7517,3.7496,3.7514,3.7511,3.7491,3.754,3.7519,3.7524,3.755,3.76,3.7604,3.7608,3.7648,3.7657,3.7665,0,0,0,0,0,0,3.748,3.7481,3.7469,3.7512,3.7519,3.752,3.7542,3.7528,3.754,3.7536,3.752,3.7521,3.7556,3.7557,3.7533,3.7596,3.7566,3.7572,3.7594,3.7603,3.761,3.7609,3.7497,0,0,0,0,0,3.7494,3.7516,3.7515,3.7552,3.7556,3.7549,3.7559,3.755,3.7556,3.7559,3.7558,3.7565,3.7581,3.7593,3.7608,3.7651,3.7651,3.7672,3.7679,3.7685,3.7689,3.7711,3.772,3.7624,3.7624,3.7624,0,0,3.7522,3.7525,3.754,3.756,3.7565,3.7586,3.7552,3.7576,3.7591,3.7562,3.7593,3.7593,3.7599,3.7637,3.7654,3.7639,3.7716,3.769,3.7695,3.7696,3.7717,3.7726,3.7734,3.7627,3.7626,3.7626,0,0,3.7584,3.759,3.7621,3.7626,3.7634,3.7629,3.7637,3.764,3.7639,3.767,3.7648,3.7666,3.7695,3.77,3.7706,3.777,3.7752,3.7776,3.7813,3.7834,3.7842,3.7849,3.787,3.7878,3.7781,3.7781,3.7781,0,3.7618,3.765,3.7638,3.7664,3.7673,3.7649,3.7679,3.7685,3.7697,3.7703,3.7687,3.7723,3.7725,3.7763,3.7779,3.7786,3.7793,3.7775,3.7842,3.7849,3.7855,3.7875,3.7883,3.7783,3.7783,3.7783,3.7782,0,3.769,3.7713,3.7737,3.775,3.7762,3.779,3.7781,3.7794,3.7784,3.778,3.7811,3.7814,3.7828,3.7837,3.7826,3.7874,3.7864,3.7845,3.7814,3.7867,3.7885,3.7893,3.7787,3.7786,3.7785,3.7785,0,0,3.7776,3.7783,3.7792,3.7797,3.7804,3.7821,3.7848,3.7863,3.7874,3.7883,3.7904,3.793,3.7912,3.7919,3.7909,3.7929,3.7978,3.7907,3.7907,3.7919,3.8028,3.8041,3.8051,3.7966,3.7968,3.7969,3.8027,0,3.7837,3.7883,3.7873,3.7918,3.7938,3.7916,3.7939,3.7945,3.7942,3.7958,3.7955,3.7973,3.7949,3.7953,3.7971,3.7968,3.7999,3.7964,3.7984,3.7985,3.7982,3.8061,3.8075,3.813,3.8035,3.8036,3.8037,0,3.7913,3.7926,3.7973,3.7976,3.7984,3.8005,3.8018,3.8034,3.804,3.8037,3.8045,3.8032,3.8057,3.8027,3.8061,3.8037,3.8045,3.8044,3.8046,3.8046,3.8013,3.8062,3.8147,3.8155,3.8049,3.8048,3.8047,0,3.7969,3.7998,3.803,3.8035,3.8041,3.8055,3.8058,3.8063,3.8073,3.8084,3.809,3.8104,3.8111,3.8121,3.8111,3.8091,3.8146,3.8116,3.8143,3.8143,3.8154,3.8153,3.824,3.8162,3.8162,3.8161,3.8161,0,3.8036,3.8065,3.8055,3.8074,3.8106,3.8095,3.8126,3.8126,3.8131,3.8149,3.8131,3.8148,3.8134,3.815,3.8143,3.8171,3.8174,3.8172,3.8169,3.8172,3.8173,3.8176,3.8172,3.8164,3.8163,3.8163,3.8162,0,3.8103,3.8098,3.8131,3.8133,3.8135,3.8158,3.816,3.8177,3.8174,3.8197,3.8202,3.8196,3.8213,3.8205,3.8223,3.8218,3.8254,3.8247,3.8252,3.825,3.8277,3.8274,3.8368,3.8379,3.8295,3.8296,3.8296,0,3.8146,3.8168,3.8173,3.8184,3.8189,3.8207,3.8217,3.8206,3.8217,3.8226,3.8243,3.8259,3.8271,3.8301,3.8297,3.8311,3.8303,3.8335,3.8305,3.8308,3.8302,3.83,3.8302,3.8341,3.8342,3.8343,3.8343,0,3.8221,3.8217,3.8233,3.8248,3.8261,3.8272,3.8281,3.8291,3.828,3.8293,3.8312,3.8322,3.8341,3.8357,3.8369,3.837,3.8355,3.8353,3.836,3.8363,3.8364,3.8363,3.8267,3.8351,3.835,3.8349,3.8349,3.8349,3.8276,3.8295,3.8301,3.8319,3.8325,3.8334,3.8351,3.835,3.8365,3.838,3.8373,3.8394,3.8399,3.8414,3.8418,3.8433,3.842,3.843,3.8433,3.8435,3.8438,3.8363,3.8436,3.8435,3.8435,3.8435,3.8435,0,3.8349,3.8353,3.837,3.8383,3.8397,3.8383,3.8393,3.8405,3.8424,3.8431,3.8444,3.8464,3.848,3.8478,3.8492,3.8505,3.8498,3.8509,3.8507,3.8508,3.8449,3.8442,3.8514,3.8514,3.8514,3.8514,3.8514,3.8514,3.8389,3.8419,3.8416,3.8449,3.8452,3.8473,3.848,3.8488,3.8493,3.8517,3.853,3.853,3.8533,3.8547,3.856,3.8559,3.8565,3.8578,3.8574,3.852,3.8512,3.8504,3.8497,3.858,3.858,3.8631,3.8631,3.8632]}]]